[[{"header":{"parameterUnit":"m.s-1","parameterCategory":1,"la1":30.2991,"la2":30.254,"lo1":-89.0895,"lo2":-89.0444,"dy":0.0017,"dx":0.0017,"nx":28,"ny":28,"refTime":"2025-06-03T09:00:00:Z","depth":0,"parameterNumber":2,"parameterNumberName":"U-component_of_WINDS"},"data":[0,0,0,0,0,0,0,0,0,0,0,0,0,0,0,0,0,0,0,0,0,0,0,0,0,0,0,0,0,0,0,0,0,0,0,0,0,0,0,0,0,0,0,0,0,0,0,0,0,0,0,0,0,0,0,0,0,0,-5.8693,-5.8694,0,-5.8734,-5.8734,-5.8735,-5.8671,-5.8668,-5.8666,-5.8664,-5.8705,-5.8708,-5.8711,0,0,0,0,0,0,0,0,0,0,0,0,0,-5.8559,-5.8562,-5.8693,-5.8694,-5.8694,-5.8734,-5.8734,-5.8735,-5.8671,-5.8668,-5.8666,-5.8663,-5.8704,-5.8707,-5.8711,0,0,0,0,0,0,0,0,0,0,0,0,0,-5.8611,-5.8563,-5.8693,-5.8667,-5.8665,-5.8734,-5.8734,-5.8735,-5.8672,-5.8668,-5.8665,-5.8662,-5.8702,-5.8707,-5.8711,-5.8807,0,0,-5.8726,-5.8728,0,0,0,0,0,0,0,0,-5.8608,-5.8615,-5.867,-5.8669,-5.8667,-5.8694,-5.8702,-5.8759,-5.8672,-5.8669,-5.8664,-5.866,-5.8704,-5.8708,-5.8723,-5.8809,-5.881,-5.8726,-5.8729,-5.8731,-5.8732,0,0,0,0,0,0,0,-5.8604,-5.8613,-5.8709,-5.8671,-5.8669,-5.8653,-5.8657,-5.8713,-5.8704,-5.8669,-5.8665,-5.867,-5.8702,-5.8718,-5.8723,-5.8811,-5.8726,-5.873,-5.8733,-5.8735,-5.8977,-5.898,0,0,0,0,0,0,-5.8604,-5.8611,-5.8708,-5.871,-5.8629,-5.8658,-5.8662,-5.8689,-5.8704,-5.8703,-5.8673,-5.8667,-5.8712,-5.8718,-5.8724,-5.8836,-5.8731,-5.8735,-5.8738,-5.8973,-5.8978,-5.8982,0,0,0,0,0,0,-5.8601,-5.8613,-5.8706,-5.866,-5.867,-5.8664,-5.8694,-5.8691,-5.8707,-5.8707,-5.8705,-5.8692,-5.871,-5.8718,-5.8787,-5.8836,-5.8738,-5.8742,-5.8969,-5.8975,-5.898,-5.906,0,0,0,0,0,0,-5.8598,-5.8613,-5.8649,-5.8661,-5.8673,-5.8768,-5.8697,-5.8694,-5.8716,-5.8709,-5.8723,-5.8723,-5.8708,-5.878,-5.8792,-5.8841,-5.8746,-5.8964,-5.8972,-5.8978,-5.9053,-5.9068,-5.908,0,0,0,0,0,-5.8593,-5.867,-5.8651,-5.8663,-5.8718,-5.8771,-5.8778,-5.876,-5.872,-5.8756,-5.8756,-5.8722,-5.883,-5.8788,-5.88,-5.8852,-5.8961,-5.897,-5.8977,-5.9047,-5.9065,-5.908,0,0,0,0,0,0,-5.8663,-5.8671,-5.865,-5.8733,-5.8752,-5.876,-5.8805,-5.8779,-5.881,-5.8801,-5.8777,-5.8781,-5.8855,-5.8861,-5.8813,-5.8945,-5.8889,-5.89,-5.8937,-5.8955,-5.8968,-5.8963,-5.8749,0,0,0,0,0,-5.8688,-5.8731,-5.8736,-5.8808,-5.8819,-5.8811,-5.8833,-5.8818,-5.8836,-5.8844,-5.8848,-5.8868,-5.8905,-5.8931,-5.8966,-5.9055,-5.9056,-5.9097,-5.911,-5.9121,-5.913,-5.9176,-5.9194,-5.9008,-5.9008,-5.9008,0,0,-5.874,-5.875,-5.8778,-5.8822,-5.8835,-5.888,-5.8818,-5.8867,-5.89,-5.8851,-5.8916,-5.8921,-5.894,-5.902,-5.9055,-5.9026,-5.9182,-5.9132,-5.9141,-5.9143,-5.9187,-5.9204,-5.922,-5.9014,-5.9013,-5.9012,0,0,-5.8856,-5.8869,-5.893,-5.8945,-5.8966,-5.896,-5.8975,-5.8988,-5.8989,-5.9054,-5.9019,-5.9057,-5.9124,-5.9139,-5.9155,-5.928,-5.925,-5.9293,-5.9362,-5.9408,-5.9423,-5.9435,-5.9478,-5.9494,-5.9302,-5.9302,-5.9303,0,-5.8918,-5.8983,-5.8965,-5.9017,-5.9037,-5.8997,-5.9058,-5.9073,-5.9105,-5.9119,-5.9088,-5.9171,-5.9181,-5.9263,-5.9293,-5.9309,-5.9324,-5.9289,-5.9422,-5.9435,-5.9446,-5.9487,-5.9503,-5.9307,-5.9307,-5.9306,-5.9306,0,-5.9057,-5.9103,-5.915,-5.9182,-5.9208,-5.9265,-5.9254,-5.9283,-5.9266,-5.9264,-5.9331,-5.9343,-5.9379,-5.9398,-5.9382,-5.9478,-5.9459,-5.9426,-5.9369,-5.9469,-5.9507,-5.9522,-5.9314,-5.9313,-5.9311,-5.931,0,0,-5.9215,-5.9237,-5.9254,-5.9268,-5.9289,-5.9324,-5.938,-5.9416,-5.944,-5.9464,-5.9509,-5.9567,-5.9536,-5.9555,-5.9541,-5.9582,-5.9678,-5.9543,-5.9543,-5.9565,-5.9782,-5.9805,-5.9823,-5.9659,-5.9662,-5.9665,-5.978,0,-5.9329,-5.9424,-5.941,-5.9501,-5.9543,-5.9507,-5.9555,-5.9573,-5.9573,-5.9609,-5.9609,-5.965,-5.9607,-5.9618,-5.9657,-5.9658,-5.972,-5.965,-5.9699,-5.9701,-5.9692,-5.9843,-5.9867,-5.9975,-5.9794,-5.9797,-5.9799,0,-5.9474,-5.9503,-5.9599,-5.9614,-5.9631,-5.9674,-5.9706,-5.9741,-5.9761,-5.9759,-5.9781,-5.976,-5.9815,-5.976,-5.9835,-5.9787,-5.9807,-5.9811,-5.9815,-5.9816,-5.9753,-5.9845,-6.0009,-6.0024,-5.9822,-5.982,-5.9818,0,-5.9576,-5.964,-5.9705,-5.9719,-5.9738,-5.9769,-5.9779,-5.9796,-5.9819,-5.9848,-5.9862,-5.9897,-5.9916,-5.9943,-5.9932,-5.9893,-6.0009,-5.9953,-6.0007,-6.0007,-6.0029,-6.0027,-6.0195,-6.0048,-6.0048,-6.0047,-6.0047,0,-5.9703,-5.9762,-5.9752,-5.9791,-5.9857,-5.9841,-5.9906,-5.9911,-5.9927,-5.9967,-5.9939,-5.9977,-5.9962,-5.9999,-5.9991,-6.0053,-6.0063,-6.0061,-6.0058,-6.0062,-6.0062,-6.0072,-6.0063,-6.0052,-6.0051,-6.005,-6.0049,0,-5.9827,-5.9822,-5.9891,-5.9904,-5.9909,-5.9957,-5.9968,-6.0005,-6.0005,-6.0056,-6.0067,-6.0065,-6.0108,-6.01,-6.0148,-6.0142,-6.0219,-6.0208,-6.0212,-6.0208,-6.0261,-6.0256,-6.0439,-6.0461,-6.0303,-6.0304,-6.0306,0,-5.9906,-5.9951,-5.997,-5.9995,-6.0007,-6.0048,-6.0071,-6.0058,-6.0084,-6.0111,-6.0145,-6.0185,-6.0216,-6.0286,-6.0288,-6.0324,-6.0312,-6.0374,-6.0317,-6.032,-6.031,-6.0306,-6.031,-6.0384,-6.0386,-6.0388,-6.0389,0,-6.0047,-6.0043,-6.0078,-6.0113,-6.0142,-6.0168,-6.0192,-6.0214,-6.0203,-6.0234,-6.0277,-6.0301,-6.035,-6.039,-6.0424,-6.0433,-6.0409,-6.0408,-6.0421,-6.0424,-6.0423,-6.0422,-6.024,-6.0402,-6.0401,-6.04,-6.0399,-6.0399,-6.0149,-6.0187,-6.0206,-6.0246,-6.0263,-6.0286,-6.0322,-6.0326,-6.0362,-6.04,-6.0391,-6.044,-6.046,-6.0503,-6.0517,-6.0555,-6.0532,-6.0552,-6.0557,-6.0561,-6.0566,-6.0421,-6.0561,-6.0561,-6.0561,-6.056,-6.056,0,-6.0286,-6.0297,-6.0334,-6.0369,-6.04,-6.0377,-6.0403,-6.043,-6.0473,-6.0495,-6.0526,-6.0576,-6.0615,-6.0622,-6.0659,-6.0688,-6.0678,-6.0698,-6.0694,-6.0696,-6.0586,-6.0569,-6.0706,-6.0706,-6.0706,-6.0706,-6.0706,-6.0706,-6.036,-6.0423,-6.0421,-6.0492,-6.0503,-6.055,-6.0567,-6.0588,-6.0605,-6.0662,-6.0694,-6.0699,-6.0714,-6.0753,-6.0788,-6.0789,-6.0802,-6.0826,-6.0823,-6.0719,-6.0704,-6.069,-6.0674,-6.083,-6.0831,-6.093,-6.093,-6.0931]},{"header":{"parameterUnit":"m.s-1","parameterCategory":1,"la1":30.2991,"la2":30.254,"lo1":-89.0895,"lo2":-89.0444,"dy":0.0017,"dx":0.0017,"nx":28,"ny":28,"refTime":"2025-06-03T09:00:00:Z","depth":0,"parameterNumber":3,"parameterNumberName":"V-component_of_WINDS"},"data":[0,0,0,0,0,0,0,0,0,0,0,0,0,0,0,0,0,0,0,0,0,0,0,0,0,0,0,0,0,0,0,0,0,0,0,0,0,0,0,0,0,0,0,0,0,0,0,0,0,0,0,0,0,0,0,0,0,0,1.9996,1.9996,0,1.9984,1.9983,1.9983,1.997,1.997,1.997,1.997,1.9953,1.9953,1.9952,0,0,0,0,0,0,0,0,0,0,0,0,0,2.0006,2.0006,1.9996,1.9996,1.9996,1.9984,1.9983,1.9983,1.997,1.997,1.997,1.997,1.9953,1.9953,1.9952,0,0,0,0,0,0,0,0,0,0,0,0,0,1.9998,2.0006,1.9996,1.9988,1.9987,1.9984,1.9983,1.9983,1.997,1.997,1.997,1.997,1.9953,1.9953,1.9952,1.9955,0,0,1.9951,1.9951,0,0,0,0,0,0,0,0,1.9999,1.9998,1.9989,1.9988,1.9987,1.9978,1.9981,1.9973,1.997,1.9977,1.997,1.997,1.9961,1.996,1.9958,1.9954,1.9953,1.9951,1.9951,1.995,1.995,0,0,0,0,0,0,0,1.9999,1.9998,1.9991,1.9989,1.9988,1.9984,1.9983,1.9979,1.997,1.9976,1.9975,1.9974,1.9961,1.9959,1.9958,1.9953,1.9951,1.995,1.995,1.995,1.9951,1.9952,0,0,0,0,0,0,2.0001,1.9999,1.9991,1.9991,1.9993,1.9984,1.9983,1.9981,1.997,1.9969,1.9974,1.9973,1.996,1.9958,1.9957,1.996,1.995,1.995,1.995,1.9951,1.9951,1.9952,0,0,0,0,0,0,2.0002,2.0001,1.9992,1.9995,1.9993,1.9984,1.9983,1.9981,1.9979,1.9969,1.9967,1.9974,1.9959,1.9958,1.9956,1.9959,1.995,1.9949,1.9951,1.9951,1.9952,1.9965,0,0,0,0,0,0,2.0002,2.0001,2.0002,1.9995,1.9993,1.9992,1.9983,1.9981,1.9979,1.9978,1.9968,1.9966,1.9959,1.9957,1.9956,1.9958,1.9949,1.995,1.9951,1.9951,1.9964,1.9966,1.9968,0,0,0,0,0,2.0002,2.0005,2.0002,2.0001,1.9994,1.9992,1.9991,1.9983,1.9979,1.998,1.9974,1.9967,1.9959,1.9957,1.9955,1.9958,1.995,1.9951,1.9951,1.9964,1.9966,1.9968,0,0,0,0,0,0,2.0011,2.0004,2.0001,2.0001,1.9998,1.999,1.999,1.9985,1.9981,1.998,1.997,1.9968,1.9968,1.9963,1.996,1.9961,1.9954,1.9954,1.9964,1.9966,1.9967,1.9968,1.9949,0,0,0,0,0,2.0014,2.0013,2.0006,2.0007,2.0006,1.9999,1.9997,1.9992,1.9987,1.9985,1.9979,1.9973,1.997,1.9967,1.9964,1.9964,1.9962,1.9966,1.9967,1.9969,1.9969,1.997,1.9971,1.9954,1.9954,1.9954,0,0,2.0017,2.0014,2.0013,2.0009,2.0006,2.0005,1.9997,1.9996,1.9995,1.9984,1.9983,1.9978,1.9972,1.9972,1.9971,1.9967,1.9974,1.9969,1.9971,1.997,1.9971,1.9972,1.9974,1.9954,1.9954,1.9954,0,0,2.0024,2.0022,2.0023,2.002,2.0016,2.0012,2.0012,2.0006,2.0003,2.0002,1.9994,1.9993,1.9987,1.9983,1.998,1.9989,1.9982,1.9988,1.9995,1.9997,1.9998,1.9999,2.0003,2.0004,1.9988,1.9988,1.9988,0,2.0029,2.0029,2.0024,2.0024,2.0023,2.0016,2.0017,2.0014,2.0008,2.0007,2.0003,1.9998,1.9992,1.9992,1.9994,1.9992,1.9992,1.9988,1.9999,2.0,2.0001,2.0004,2.0005,1.9989,1.9989,1.9989,1.9989,0,2.0036,2.0036,2.0037,2.0034,2.0033,2.0034,2.0028,2.0028,2.0024,2.0019,2.0019,2.0013,2.0009,2.0009,2.0003,2.0008,2.0006,2.0001,1.9993,2.0003,2.0006,2.0007,1.999,1.999,1.999,1.999,0,0,2.0045,2.0042,2.0042,2.0042,2.0038,2.0037,2.0038,2.0036,2.0036,2.0032,2.0033,2.003,2.0026,2.0022,2.0017,2.0018,2.0027,2.0013,2.0013,2.0016,2.0032,2.0036,2.0037,2.0023,2.0023,2.0023,2.0033,0,2.0052,2.0054,2.005,2.0053,2.0053,2.0048,2.0049,2.0046,2.0043,2.0042,2.0038,2.0036,2.0031,2.0029,2.0031,2.0026,2.003,2.0025,2.0022,2.0022,2.0024,2.0038,2.0042,2.005,2.0034,2.0034,2.0034,0,2.0058,2.0058,2.0062,2.006,2.006,2.006,2.0059,2.0059,2.0056,2.0054,2.0052,2.0047,2.0047,2.0042,2.0042,2.0039,2.0038,2.0036,2.0036,2.0035,2.0028,2.0037,2.0053,2.0054,2.0036,2.0035,2.0035,0,2.0066,2.0066,2.0069,2.0068,2.0066,2.0067,2.0065,2.0063,2.0062,2.0061,2.006,2.0059,2.0057,2.0056,2.005,2.0047,2.0052,2.0045,2.0049,2.005,2.0049,2.0049,2.0065,2.005,2.005,2.005,2.005,0,2.0073,2.0075,2.0072,2.0074,2.0076,2.0073,2.0075,2.0073,2.0071,2.0072,2.0067,2.0067,2.0061,2.006,2.0056,2.0058,2.0057,2.0055,2.0053,2.0055,2.0055,2.0053,2.0052,2.005,2.005,2.005,2.005,0,2.008,2.0079,2.0081,2.008,2.008,2.0082,2.008,2.0081,2.0079,2.008,2.008,2.0076,2.0075,2.0071,2.0069,2.0066,2.0069,2.0066,2.007,2.0069,2.0074,2.0073,2.0088,2.009,2.0074,2.0074,2.0074,0,2.0085,2.0087,2.0086,2.0088,2.0087,2.0088,2.0089,2.0086,2.0086,2.0085,2.0086,2.0086,2.0085,2.0085,2.0081,2.008,2.0078,2.0083,2.0077,2.0079,2.0078,2.0078,2.0078,2.0084,2.0084,2.0084,2.0084,0,2.0093,2.0092,2.0094,2.0095,2.0096,2.0097,2.0097,2.0098,2.0095,2.0095,2.0096,2.0096,2.0096,2.0096,2.0094,2.0092,2.0088,2.0087,2.0088,2.0089,2.0091,2.009,2.0073,2.0086,2.0086,2.0086,2.0086,2.0086,2.0099,2.0101,2.0102,2.0104,2.0104,2.0105,2.0107,2.0106,2.0107,2.0107,2.0105,2.0107,2.0105,2.0104,2.0102,2.0103,2.01,2.0101,2.0102,2.0102,2.0103,2.0092,2.0103,2.0103,2.0103,2.0103,2.0103,0,2.0106,2.0107,2.0109,2.0111,2.0113,2.0111,2.0112,2.0113,2.0115,2.0115,2.0116,2.0117,2.0118,2.0115,2.0115,2.0116,2.0114,2.0116,2.0116,2.0116,2.0105,2.0105,2.0118,2.0118,2.0118,2.0118,2.0118,2.0118,2.011,2.0114,2.0115,2.0119,2.012,2.0122,2.0123,2.0124,2.0124,2.0127,2.0128,2.0127,2.0126,2.0127,2.0127,2.0126,2.0126,2.0129,2.0128,2.0118,2.0116,2.0115,2.0114,2.0129,2.0129,2.0138,2.0138,2.0138]}]]